Regional Weather Roundup
Issued by NWS Midland/Odessa, TX

Home | Current Version | Previous Version | Text Only | Print | Product List | Glossary On
Versions: 1 2 3 4 5 6 7 8 9 10 11 12 13 14 15 16 17 18 19 20 21 22 23 24 25 26 27 28 29 30 31 32 33 34 35 36 37 38 39 40 41 42 43 44 45 46 47 48 49 50
000
ASUS44 KMAF 300610
RWRMAF
MIDLAND AREA WEATHER ROUNDUP
NATIONAL WEATHER SERVICE MIDLAND TX
100 AM CDT SUN AUG 30 2015

...IN SOUTHWEST TEXAS AND SOUTHEAST NEW MEXICO...

CITY           SKY/WX    TMP DP  RH WIND       PRES   REMARKS
ALPINE         FAIR      62  47  59 NW3       30.23S
ANDREWS        FAIR      66  59  78 S3        30.14F
ARTESIA        CLEAR     70  63  78 S3        30.16R
BIG SPRING     FAIR      67  56  65 CALM      30.13R
CARLSBAD       CLEAR     72  53  51 S5        30.12S
DRYDEN           N/A     78  57  48 N7        30.02S
FORT STOCKTON  CLOUDY    72  53  51 E5        30.10S
GUAD PASS      CLEAR     65  51  60 NE15      30.26R
HOBBS            N/A     64  63  94 CALM      30.16F
MARFA          FAIR      59  48  67 N7        30.21S
MIDLAND AIRPK  FAIR      70  59  69 CALM      30.12F
MIDLAND INTL   CLOUDY    67  60  78 CALM      30.11S
ODESSA         CLOUDY    71  57  61 E7        30.13S
PECOS          FAIR      71  54  54 NE5       30.09S
PRESIDIO       NOT AVBL
SEMINOLE       FAIR      65  53  65 CALM      30.15F
SNYDER         FAIR      68  55  63 W6        30.09S
WINK           FAIR      71  59  65 E7        30.09F
$$
...OTHER STATIONS IN TEXAS...

CITY           SKY/WX    TMP DP  RH WIND       PRES   REMARKS
ABILENE        CLOUDY    72  63  73 SE3       30.03S
AMARILLO       FAIR      67  60  78 CALM      30.15S
AUSTIN         CLOUDY    78  65  63 S10       30.00S
BROWNSVILLE    FAIR      78  74  87 SE8       29.98F
CORPUS CHRISTI FAIR      73  61  65 S5        30.00S
DALLAS FTW     MOCLDY    81  64  56 SW6       29.97S
DEL RIO        FAIR      83  53  35 E6        29.97R
EL PASO        PTCLDY    80  54  40 E8        30.12R
HOUSTON INT    MOCLDY    74  66  76 S3        30.00F
LUBBOCK        MOCLDY    66  58  75 SW3       30.12F
SAN ANGELO     FAIR      76  60  57 CALM      30.05S
SAN ANTONIO    MOCLDY    79  65  62 S9        30.02S
WACO           FAIR      84  64  50 S10       30.00S
WICHITA FALLS  NOT AVBL
$$
...OTHER LOCATIONS IN NEW MEXICO...

CITY           SKY/WX    TMP DP  RH WIND       PRES   REMARKS
ALAMAGORDO     CLEAR     70  59  68 NW5       30.16R
ALBUQUERQUE    PTCLDY    73  48  41 E6        30.24R
CANNON AFB     CLEAR     64  55  71 N2        30.20R
CLOVIS         CLEAR     63  55  77 E5        30.21S
HOLLOMAN AFB   CLEAR     74  56  53 N5        30.13S
ROSWELL        CLEAR     67  59  75 CALM      30.15S
RUIDOSO        PTCLDY    59  54  82 MISG      30.38S
SANTA FE       CLEAR     65  48  54 E8        30.31S
TRUTH OR CONSE MOCLDY    77  52  41 SW5       30.19F
TUCUMCARI      CLEAR     66  56  70 W5        30.17S
$$




USA.gov is the U.S. government's official web portal to all federal, state and local government web resources and services.